Weather in Oleksiievo-Druzhkivka

Ukraine / Donetsk Region     48°34′44″N   37°36′42″E
temp.,
°C
wind,
m/s
gust,
m/s
humid.,
%
clouds,
%
prec.,
mm/h
press.,
hPa
HPBL,
m
19 may, wed
wed1900:00+14s51188100 0.1 1006491
03:00+14s4990100 0.3 1006394
06:00+13sse4894100 0.2 1006296
09:00+14s4882100 0.9 1006546
12:00+16sse7969100 0.4 10061135
15:00+16s6106670 1.7 1006859
18:00+16ssw697667 1.2 1006996
21:00+12sse51094100 2.4 1006533
20 may, thu
thu2000:00+13sw7119349 2.6 1005600
03:00+12sw7129199 2.9 1006759
06:00+12sw61195100 0.1 1007661
09:00+13sw6109098 0.2 1009723
12:00+17wsw7116452 0.4 10101524
15:00+19wsw81057100 0.6 10111884
18:00+18w476227 0.0 1011812
21:00+13nw117942 0.0 101210
21 may, fri
fri2100:00+12e1180100 0.0 101311
03:00+11ne2284100 0.0 101424
06:00+12ne488686 0.0 1014207
09:00+18ene7967100 0.0 1013626
12:00+19ene8962100 0.0 1012936
15:00+21e6760100 0.0 1011998
18:00+18ne5976100 0.0 1011282
21:00+16nne4887100 0.0 1011142
22 may, sat
sat2200:00+14n5109142 0.0 1010186
03:00+14nne5109332 0.0 1010242
06:00+14n489287 0.0 1010242
09:00+19ne6772100 0.0 1010524
12:00+24ene5659100 0.0 1011867
15:00+25ene5657100 0.0 10101143
18:00+22ene4773100 0.0 1011302
21:00+18ese2288100 0.0 101041
23 may, sun
sun2300:00+18n228098 0.0 101020
03:00+16n3389100 0.0 100939
06:00+17nne2790100 0.0 1007182
09:00+21nnw2373100 0.0 1007386
12:00+26n335892 0.0 1006812
15:00+27nnw225479 0.0 10051159
18:00+26nw55620 0.0 1005864
21:00+20wnw47870 0.0 1008148